Time,TemperatureF,DewpointF,PressureIn,WindDirection,WindDirectionDegrees,WindSpeedMPH,WindSpeedGustMPH,Humidity,HourlyPrecipIn,Conditions,Clouds,dailyrainin,SoftwareType,DateUTC
2015-03-02 00:00:00,37.2,37.2,30.30,SW,226,0.0,0.0,100,0.00,,,0.18,Wunderground v.1.15,2015-03-02 05:00:00,
2015-03-02 00:05:00,37.3,37.3,30.30,SW,229,0.0,0.0,100,0.00,,,0.19,Wunderground v.1.15,2015-03-02 05:05:00,
2015-03-02 00:10:00,37.3,37.3,30.30,WSW,239,1.0,3.0,100,0.00,,,0.00,Wunderground v.1.15,2015-03-02 05:10:00,
2015-03-02 00:20:00,37.3,37.3,30.29,WSW,248,2.0,2.0,100,0.00,,,0.00,Wunderground v.1.15,2015-03-02 05:20:00,
2015-03-02 00:25:00,37.3,37.3,30.29,SW,236,1.0,2.0,100,0.00,,,0.00,Wunderground v.1.15,2015-03-02 05:25:00,
2015-03-02 00:30:00,37.4,37.4,30.28,WSW,247,0.0,4.0,100,0.00,,,0.00,Wunderground v.1.15,2015-03-02 05:30:00,
2015-03-02 00:40:00,37.4,37.4,30.28,SSW,210,1.0,2.0,100,0.00,,,0.00,Wunderground v.1.15,2015-03-02 05:40:00,
2015-03-02 00:45:00,37.4,37.4,30.27,SW,222,0.0,2.0,100,0.00,,,0.00,Wunderground v.1.15,2015-03-02 05:45:00,
2015-03-02 00:50:00,37.5,37.5,30.27,SW,219,1.0,1.0,100,0.00,,,0.00,Wunderground v.1.15,2015-03-02 05:50:00,
2015-03-02 00:55:00,37.5,37.5,30.27,SW,233,1.0,1.0,100,0.00,,,0.00,Wunderground v.1.15,2015-03-02 05:55:00,
2015-03-02 01:05:00,37.7,37.7,30.26,WSW,238,2.0,2.0,100,0.00,,,0.01,Wunderground v.1.15,2015-03-02 06:05:00,
2015-03-02 01:10:00,37.8,37.8,30.26,WSW,237,2.0,3.0,100,0.00,,,0.01,Wunderground v.1.15,2015-03-02 06:10:00,
2015-03-02 01:15:00,37.8,37.8,30.26,West,260,3.0,5.0,100,0.00,,,0.01,Wunderground v.1.15,2015-03-02 06:15:00,
2015-03-02 01:20:00,37.9,37.9,30.26,SW,229,4.0,4.0,100,0.00,,,0.01,Wunderground v.1.15,2015-03-02 06:20:00,
2015-03-02 01:30:00,38.1,38.1,30.25,SW,222,3.0,4.0,100,0.00,,,0.01,Wunderground v.1.15,2015-03-02 06:30:00,
2015-03-02 01:35:00,38.1,38.1,30.25,WSW,245,3.0,4.0,100,0.00,,,0.01,Wunderground v.1.15,2015-03-02 06:35:00,
2015-03-02 01:40:00,38.2,38.2,30.24,West,261,3.0,5.0,100,0.00,,,0.01,Wunderground v.1.15,2015-03-02 06:40:00,
2015-03-02 01:45:00,38.2,38.2,30.24,West,265,4.0,5.0,100,0.00,,,0.01,Wunderground v.1.15,2015-03-02 06:45:00,
2015-03-02 01:55:00,38.3,38.3,30.24,WSW,239,4.0,5.0,100,0.00,,,0.01,Wunderground v.1.15,2015-03-02 06:55:00,
2015-03-02 02:00:00,38.3,38.3,30.24,WSW,253,4.0,4.0,100,0.00,,,0.01,Wunderground v.1.15,2015-03-02 07:00:00,
2015-03-02 02:05:00,38.4,38.4,30.24,WSW,244,4.0,5.0,100,0.00,,,0.01,Wunderground v.1.15,2015-03-02 07:05:00,
2015-03-02 02:10:00,38.4,38.4,30.23,SW,234,3.0,3.0,100,0.00,,,0.01,Wunderground v.1.15,2015-03-02 07:10:00,
2015-03-02 02:20:00,38.4,38.4,30.23,West,262,3.0,3.0,100,0.00,,,0.01,Wunderground v.1.15,2015-03-02 07:20:00,
2015-03-02 02:25:00,38.5,38.5,30.22,SW,234,2.0,3.0,100,0.00,,,0.01,Wunderground v.1.15,2015-03-02 07:25:00,
2015-03-02 02:30:00,38.5,38.5,30.22,WSW,244,2.0,2.0,100,0.00,,,0.01,Wunderground v.1.15,2015-03-02 07:30:00,
2015-03-02 02:35:00,38.5,38.5,30.22,WSW,238,2.0,2.0,100,0.00,,,0.01,Wunderground v.1.15,2015-03-02 07:35:00,
2015-03-02 02:45:00,38.5,38.5,30.21,WSW,255,3.0,3.0,100,0.00,,,0.01,Wunderground v.1.15,2015-03-02 07:45:00,
2015-03-02 02:50:00,38.6,38.6,30.21,WSW,252,3.0,3.0,100,0.00,,,0.01,Wunderground v.1.15,2015-03-02 07:50:00,
2015-03-02 02:55:00,38.6,38.6,30.20,WSW,238,3.0,4.0,100,0.00,,,0.01,Wunderground v.1.15,2015-03-02 07:55:00,
2015-03-02 03:05:00,38.6,38.6,30.20,SW,228,3.0,3.0,100,0.00,,,0.01,Wunderground v.1.15,2015-03-02 08:05:00,
2015-03-02 03:10:00,38.6,38.6,30.19,WSW,242,3.0,3.0,100,0.00,,,0.01,Wunderground v.1.15,2015-03-02 08:10:00,
2015-03-02 03:15:00,38.6,38.6,30.19,WSW,238,2.0,3.0,100,0.00,,,0.01,Wunderground v.1.15,2015-03-02 08:15:00,
2015-03-02 03:20:00,38.6,38.6,30.19,WSW,242,2.0,3.0,100,0.00,,,0.01,Wunderground v.1.15,2015-03-02 08:20:00,
2015-03-02 03:30:00,38.7,38.7,30.19,WSW,238,2.0,2.0,100,0.00,,,0.01,Wunderground v.1.15,2015-03-02 08:30:00,
2015-03-02 03:35:00,38.7,38.7,30.18,WSW,243,1.0,2.0,100,0.00,,,0.01,Wunderground v.1.15,2015-03-02 08:35:00,
2015-03-02 03:40:00,38.7,38.7,30.18,SW,217,2.0,3.0,100,0.00,,,0.01,Wunderground v.1.15,2015-03-02 08:40:00,
2015-03-02 03:45:00,38.7,38.7,30.18,WSW,240,2.0,3.0,100,0.00,,,0.01,Wunderground v.1.15,2015-03-02 08:45:00,
2015-03-02 03:55:00,38.7,38.7,30.18,SW,234,1.0,3.0,100,0.00,,,0.01,Wunderground v.1.15,2015-03-02 08:55:00,
2015-03-02 04:00:00,38.7,38.7,30.17,SW,229,1.0,1.0,100,0.00,,,0.01,Wunderground v.1.15,2015-03-02 09:00:00,
2015-03-02 04:05:00,38.8,38.8,30.18,WSW,249,2.0,2.0,100,0.00,,,0.01,Wunderground v.1.15,2015-03-02 09:05:00,
2015-03-02 04:10:00,38.8,38.8,30.18,WSW,245,2.0,4.0,100,0.00,,,0.01,Wunderground v.1.15,2015-03-02 09:10:00,
2015-03-02 04:20:00,38.8,38.8,30.18,WSW,252,2.0,4.0,100,0.00,,,0.01,Wunderground v.1.15,2015-03-02 09:20:00,
2015-03-02 04:25:00,38.9,38.9,30.18,WSW,239,2.0,4.0,100,0.00,,,0.01,Wunderground v.1.15,2015-03-02 09:25:00,
2015-03-02 04:30:00,38.9,38.9,30.18,WSW,241,2.0,2.0,100,0.00,,,0.01,Wunderground v.1.15,2015-03-02 09:30:00,
2015-03-02 04:40:00,38.9,38.9,30.18,SW,230,0.0,4.0,100,0.00,,,0.01,Wunderground v.1.15,2015-03-02 09:40:00,
2015-03-02 04:45:00,38.9,38.9,30.17,WSW,247,1.0,4.0,100,0.00,,,0.01,Wunderground v.1.15,2015-03-02 09:45:00,
2015-03-02 04:50:00,38.9,38.9,30.17,SW,230,2.0,3.0,100,0.00,,,0.01,Wunderground v.1.15,2015-03-02 09:50:00,
2015-03-02 04:55:00,39.0,39.0,30.17,West,264,3.0,6.0,100,0.00,,,0.01,Wunderground v.1.15,2015-03-02 09:55:00,
2015-03-02 05:00:00,39.0,39.0,30.18,WSW,257,4.0,5.0,100,0.00,,,0.01,Wunderground v.1.15,2015-03-02 10:00:00,
2015-03-02 05:10:00,39.1,39.1,30.18,West,265,4.0,4.0,100,0.00,,,0.01,Wunderground v.1.15,2015-03-02 10:10:00,
2015-03-02 05:15:00,39.1,39.1,30.18,West,261,3.0,4.0,100,0.00,,,0.01,Wunderground v.1.15,2015-03-02 10:15:00,
2015-03-02 05:20:00,39.2,39.2,30.19,WSW,257,2.0,3.0,100,0.00,,,0.01,Wunderground v.1.15,2015-03-02 10:20:00,
2015-03-02 05:30:00,39.3,39.3,30.19,West,269,3.0,3.0,100,0.00,,,0.01,Wunderground v.1.15,2015-03-02 10:30:00,
2015-03-02 05:35:00,39.4,39.4,30.19,West,280,3.0,3.0,100,0.00,,,0.01,Wunderground v.1.15,2015-03-02 10:35:00,
2015-03-02 05:40:00,39.4,39.4,30.20,WNW,291,3.0,3.0,100,0.00,,,0.01,Wunderground v.1.15,2015-03-02 10:40:00,
2015-03-02 05:45:00,39.4,39.4,30.20,WNW,293,1.0,3.0,100,0.00,,,0.01,Wunderground v.1.15,2015-03-02 10:45:00,
2015-03-02 05:55:00,39.5,39.5,30.20,West,279,1.0,3.0,100,0.00,,,0.01,Wunderground v.1.15,2015-03-02 10:55:00,
2015-03-02 06:00:00,39.5,39.5,30.20,WNW,297,1.0,1.0,100,0.00,,,0.01,Wunderground v.1.15,2015-03-02 11:00:00,
2015-03-02 06:05:00,39.5,39.5,30.19,WNW,283,1.0,1.0,100,0.00,,,0.01,Wunderground v.1.15,2015-03-02 11:05:00,
2015-03-02 06:10:00,39.4,39.4,30.19,WNW,283,1.0,1.0,100,0.00,,,0.01,Wunderground v.1.15,2015-03-02 11:10:00,
2015-03-02 06:20:00,39.5,39.5,30.19,WNW,284,0.0,0.0,100,0.00,,,0.01,Wunderground v.1.15,2015-03-02 11:20:00,
2015-03-02 06:25:00,39.5,39.5,30.19,WNW,284,0.0,0.0,100,0.00,,,0.01,Wunderground v.1.15,2015-03-02 11:25:00,
2015-03-02 06:30:00,39.5,39.5,30.18,West,279,0.0,0.0,100,0.00,,,0.01,Wunderground v.1.15,2015-03-02 11:30:00,
2015-03-02 06:40:00,39.5,39.5,30.18,WSW,250,0.0,0.0,100,0.00,,,0.01,Wunderground v.1.15,2015-03-02 11:40:00,
2015-03-02 06:45:00,39.5,39.5,30.19,WSW,250,0.0,1.0,100,0.00,,,0.01,Wunderground v.1.15,2015-03-02 11:45:00,
2015-03-02 06:50:00,39.5,39.5,30.19,WSW,250,0.0,0.0,100,0.00,,,0.01,Wunderground v.1.15,2015-03-02 11:50:00,
2015-03-02 06:55:00,39.7,39.7,30.19,WSW,250,0.0,0.0,100,0.00,,,0.01,Wunderground v.1.15,2015-03-02 11:55:00,
2015-03-02 07:05:00,39.7,39.7,30.20,WSW,251,0.0,2.0,100,0.00,,,0.01,Wunderground v.1.15,2015-03-02 12:05:00,
2015-03-02 07:10:00,39.7,39.7,30.20,WSW,251,0.0,0.0,100,0.00,,,0.01,Wunderground v.1.15,2015-03-02 12:10:00,
2015-03-02 07:15:00,39.7,39.7,30.20,WSW,252,0.0,0.0,100,0.00,,,0.01,Wunderground v.1.15,2015-03-02 12:15:00,
2015-03-02 07:20:00,39.7,39.7,30.20,WSW,252,0.0,0.0,100,0.00,,,0.01,Wunderground v.1.15,2015-03-02 12:20:00,
2015-03-02 07:25:00,39.8,39.8,30.20,West,259,0.0,0.0,100,0.00,,,0.01,Wunderground v.1.15,2015-03-02 12:25:00,
2015-03-02 07:35:00,40.0,40.0,30.20,WSW,243,2.0,3.0,100,0.00,,,0.01,Wunderground v.1.15,2015-03-02 12:35:00,
2015-03-02 07:40:00,40.1,40.1,30.20,WSW,247,3.0,4.0,100,0.00,,,0.01,Wunderground v.1.15,2015-03-02 12:40:00,
2015-03-02 07:45:00,40.3,40.3,30.20,WSW,242,3.0,4.0,100,0.00,,,0.01,Wunderground v.1.15,2015-03-02 12:45:00,
2015-03-02 07:55:00,40.5,40.5,30.20,SW,221,2.0,3.0,100,0.00,,,0.01,Wunderground v.1.15,2015-03-02 12:55:00,
2015-03-02 08:00:00,40.6,40.6,30.20,SSW,211,1.0,2.0,100,0.00,,,0.01,Wunderground v.1.15,2015-03-02 13:00:00,
2015-03-02 08:05:00,40.7,40.7,30.20,SW,229,2.0,3.0,100,0.00,,,0.01,Wunderground v.1.15,2015-03-02 13:05:00,
2015-03-02 08:10:00,40.9,40.9,30.21,West,260,3.0,3.0,100,0.00,,,0.01,Wunderground v.1.15,2015-03-02 13:10:00,
2015-03-02 08:20:00,41.1,41.1,30.21,WSW,244,3.0,3.0,100,0.00,,,0.01,Wunderground v.1.15,2015-03-02 13:20:00,
2015-03-02 08:25:00,41.3,41.3,30.21,WSW,257,4.0,5.0,100,0.00,,,0.01,Wunderground v.1.15,2015-03-02 13:25:00,
2015-03-02 08:30:00,41.4,41.4,30.21,SW,233,3.0,3.0,100,0.00,,,0.01,Wunderground v.1.15,2015-03-02 13:30:00,
2015-03-02 08:35:00,41.6,41.6,30.22,WSW,255,3.0,5.0,100,0.00,,,0.01,Wunderground v.1.15,2015-03-02 13:35:00,
2015-03-02 08:45:00,42.0,42.0,30.22,West,263,2.0,3.0,100,0.00,,,0.01,Wunderground v.1.15,2015-03-02 13:45:00,
2015-03-02 08:50:00,42.2,42.2,30.22,WSW,244,2.0,4.0,100,0.00,,,0.01,Wunderground v.1.15,2015-03-02 13:50:00,
2015-03-02 09:00:00,42.5,42.5,30.22,WSW,247,3.0,5.0,100,0.00,,,0.01,Wunderground v.1.15,2015-03-02 14:00:00,
2015-03-02 09:05:00,42.7,42.7,30.23,WNW,286,3.0,5.0,100,0.00,,,0.01,Wunderground v.1.15,2015-03-02 14:05:00,
2015-03-02 09:10:00,43.1,43.1,30.23,West,270,3.0,3.0,100,0.00,,,0.01,Wunderground v.1.15,2015-03-02 14:10:00,
2015-03-02 09:15:00,43.3,43.3,30.23,WNW,302,2.0,4.0,100,0.00,,,0.01,Wunderground v.1.15,2015-03-02 14:15:00,
2015-03-02 09:25:00,43.6,43.6,30.23,West,261,3.0,3.0,100,0.00,,,0.01,Wunderground v.1.15,2015-03-02 14:25:00,
2015-03-02 09:30:00,43.9,43.9,30.23,WSW,254,3.0,3.0,100,0.00,,,0.01,Wunderground v.1.15,2015-03-02 14:30:00,
2015-03-02 09:40:00,44.2,44.2,30.24,WNW,283,2.0,2.0,100,0.00,,,0.01,Wunderground v.1.15,2015-03-02 14:40:00,
2015-03-02 09:45:00,44.2,44.2,30.24,WNW,289,2.0,3.0,100,0.00,,,0.01,Wunderground v.1.15,2015-03-02 14:45:00,
2015-03-02 09:50:00,44.6,44.6,30.24,North,349,2.0,2.0,100,0.00,,,0.01,Wunderground v.1.15,2015-03-02 14:50:00,
2015-03-02 09:55:00,44.8,44.8,30.24,NNW,348,1.0,3.0,100,0.00,,,0.01,Wunderground v.1.15,2015-03-02 14:55:00,
2015-03-02 10:05:00,45.3,45.3,30.24,NNW,340,2.0,2.0,100,0.00,,,0.01,Wunderground v.1.15,2015-03-02 15:05:00,
2015-03-02 10:10:00,46.1,46.1,30.23,NNW,341,2.0,2.0,100,0.00,,,0.01,Wunderground v.1.15,2015-03-02 15:10:00,